Regional Weather Roundup
Issued by NWS

Current Version | Previous Version | Text Only | Print | Product List | Glossary On
Versions: 1 2 3 4 5 6 7 8 9 10 11 12 13 14 15 16 17 18 19 20 21 22 23 24 25 26 27 28 29 30 31 32 33 34 35 36 37 38 39 40 41 42 43 44 45 46 47 48 49 50
000
ASUS44 KMEG 301710
RWRTN
TENNESSEE HOURLY STATE WEATHER ROUNDUP
NATIONAL WEATHER SERVICE MEMPHIS TN
1200 PM CDT SAT AUG 30 2014

TNZ002-004-019-021-049-052-054-088>092-301800-
WEST TENNESSEE

CITY           SKY/WX    TMP DP  RH WIND       PRES   REMARKS
MEMPHIS INTL   LGT RAIN  80  73  79 S5        30.05S
NWS MEMPHIS      N/A     79 N/A N/A MISG        N/A
JACKSON        CLOUDY    78  73  84 SW3       30.07S
DYERSBURG      CLOUDY    81  66  61 SW8       30.06S
UNION CITY     SUNNY     81  73  78 SW8       30.04S
PARIS          SUNNY     79  72  78 SW7       30.07S
HUNTINGDON     CLOUDY    79  71  76 SW3       30.06F
LEXINGTON      PTSUNNY   73  72  94 CALM      30.07S
SAVANNAH       MOSUNNY   75  75 100 S5        30.08S
$$

TNZ008-025-027-028-033-062-065-066-301800-
NORTH MIDDLE TENNESSEE

CITY           SKY/WX    TMP DP  RH WIND       PRES   REMARKS
NASHVILLE      CLOUDY    81  69  67 CALM      30.10S
DICKSON        CLOUDY    73  70  88 SW7       30.11R
PORTLAND       PTSUNNY   81  68  65 S8        30.10R
CLARKSVILLE    LGT RAIN  79  72  79 SW6       30.08R
LEBANON        CLOUDY    81  68  64 S5        30.09S
SMYRNA         CLOUDY    81  68  64 S5        30.11S
COOKEVILLE     SUNNY     84  72  65 S7        30.13S
LIVINGSTON     CLOUDY    82  66  58 S6        30.15S
GALLATIN       CLOUDY    80  69  69 S3        30.11S
CROSSVILLE     CLOUDY    80  65  59 S7        30.19F
$$

TNZ061-075-076-078-094-096-097-301800-
SOUTH MIDDLE TENNESSEE

CITY           SKY/WX    TMP DP  RH WIND       PRES   REMARKS
LEWISBURG      CLOUDY    82  68  62 CALM      30.11R
FAYETTEVILLE   SUNNY     82  70  65 S3        30.12S
TULLAHOMA      MOSUNNY   82  70  65 S7        30.14S
WINCHESTER     SUNNY     81  70  69 S5        30.14S
MCMINNVILLE    SUNNY     82  73  74 SE3       30.13F
COLUMBIA         N/A     81  72  74 CALM      30.10R
SHELBYVILLE    MOSUNNY   82  72  69 S8        30.13S
$$

TNZ017-018-042-046-047-301800-
NORTHEAST TENNESSEE

CITY           SKY/WX    TMP DP  RH WIND       PRES   REMARKS
TRI CITIES     MOSUNNY   88  60  38 S3        30.18F
ELIZABETHTON   MOSUNNY   88  61  40 VRB3      30.19F
$$

TNZ012-013-036-069-073-074-301800-
CENTRAL EAST TENNESSEE

CITY           SKY/WX    TMP DP  RH WIND       PRES   REMARKS
KNOXVILLE      PTSUNNY   87  68  52 W7        30.13F HX  90
OAK RIDGE      MOSUNNY   87  66  49 CALM      30.16F
GATLINBURG     MOSUNNY   90  64  43 CALM      30.13F HX  91
MORRISTOWN     SUNNY     90  64  43 VRB5      30.17F HX  91
$$

TNZ083-085-099-301800-
SOUTHEAST TENNESSEE

CITY           SKY/WX    TMP DP  RH WIND       PRES   REMARKS
CHATTANOOGA    CLOUDY    85  69  58 S8        30.14F
$$

SKY/WX REPORTED AS FAIR MEANS FEW OR NO CLOUDS BELOW
12 THOUSAND FEET.




USA.gov is the U.S. government's official web portal to all federal, state and local government web resources and services.